Tacoma, WA

8:04 AM PDT on August 17, 2017 (GMT -0700)
McChord Air Force Base

Weather History for KTCM - March, 2013

Change the Weather History Date:

Saturday, March 9, 2013

  Actual Average Record
Temperature  
Mean Temperature 41 °F -  
Max Temperature 56 °F 49 °F 70 °F (1995)
Min Temperature 26 °F 34 °F 26 °F (2010)
Degree Days  
Heating Degree Days 24    
Moisture  
Dew Point 33 °F    
Average Humidity 88    
Maximum Humidity 100    
Minimum Humidity 47    
Precipitation  
Precipitation 0.00 in - - ()
Sea Level Pressure  
Sea Level Pressure 30.42 in    
Wind  
Wind Speed 2 mph (NNW)    
Max Wind Speed 7 mph    
Max Gust Speed -    
Visibility 9 miles    
Events Fog    
Averages and records for this station are not official NWS values.
T = Trace of Precipitation, MM = Missing Value Source: NWS Daily Summary

Daily Weather History Graph

Daily Weather History Graph

Search for Another Location

Airport or City:

Trip Planner

Search our weather history database for the weather conditions in past years. The results will help you decide how hot, cold, wet, or windy it might be!

Date:

Astronomy

Mar. 09, 2013 Rise Set
Actual Time 6:33 AM PST 6:07 PM PST
Civil Twilight 6:03 AM PST 6:37 PM PST
Nautical Twilight 5:28 AM PST 7:13 PM PST
Astronomical Twilight 4:52 AM PST 7:49 PM PST
Moon 5:07 AM PST (3/9) 4:10 PM PST (3/9)
Length of Visible Light 12h 34m
Length of Day
11h 33m
Waning Crescent, 5% of the Moon is Illuminated
Mar 9
Waning Crescent
Mar 11
New
Mar 19
First Quarter
Mar 27
Full
Apr 2
Last Quarter

Hourly Weather History & Observations

Time (PST) Temp. Windchill Dew Point Humidity Pressure Visibility Wind Dir Wind Speed Gust Speed Precip Events Conditions
12:58 AM 28.9 °F - 28.8 °F 99% 30.28 in 10.0 mi Calm Calm - N/A   Clear
1:58 AM 27.7 °F 23.8 °F 27.3 °F 99% 30.30 in 9.0 mi South 3.5 mph - N/A   Clear
2:58 AM 28.0 °F - 27.9 °F 99% 30.30 in 9.0 mi Calm Calm - N/A   Clear
3:58 AM 29.3 °F - 29.1 °F 99% 30.32 in 10.0 mi South 2.3 mph - N/A   Clear
4:58 AM 28.2 °F - 28.0 °F 99% 30.34 in 10.0 mi Calm Calm - N/A   Clear
5:58 AM 28.2 °F - 27.9 °F 99% 30.36 in 10.0 mi WSW 2.3 mph - N/A   Clear
6:38 AM 28.4 °F - 28.4 °F 100% 30.35 in 2.0 mi Calm Calm - N/A   Clear
6:48 AM 26.6 °F - 26.6 °F 100% 30.36 in 10.0 mi Calm Calm - N/A   Clear
6:58 AM 27.7 °F - 27.3 °F 99% 30.38 in 10.0 mi South 2.3 mph - N/A   Clear
7:24 AM 28.4 °F - 28.4 °F 100% 30.38 in 10.0 mi East 1.2 mph - N/A   Partly Cloudy
7:34 AM 28.4 °F - 28.4 °F 100% 30.38 in 10.0 mi East 2.3 mph - N/A   Mostly Cloudy
7:47 AM 32.0 °F - 32.0 °F 100% 30.39 in 10.0 mi Calm Calm - N/A   Light Freezing Drizzle
7:58 AM 30.9 °F - 30.7 °F 99% 30.42 in 10.0 mi NNE 2.3 mph - 0.00 in   Light Freezing Drizzle
8:03 AM 32.0 °F - 32.0 °F 100% 30.41 in 10.0 mi North 2.3 mph - N/A   Light Freezing Drizzle
8:04 AM 32.0 °F - 32.0 °F 100% 30.41 in 8.0 mi North 2.3 mph - N/A   Scattered Clouds
8:09 AM 32.0 °F - 32.0 °F 100% 30.41 in 2.0 mi North 2.3 mph - N/A   Scattered Clouds
8:11 AM 32.0 °F - 32.0 °F 100% 30.41 in 0.8 mi North 2.3 mph - N/A   Light Freezing Drizzle
8:16 AM 32.0 °F - 32.0 °F 100% 30.41 in 0.5 mi NNE 1.2 mph - N/A Fog Light Freezing Drizzle
8:21 AM 32.0 °F - 32.0 °F 100% 30.41 in 0.8 mi Calm Calm - N/A   Clear
8:26 AM 32.0 °F - 32.0 °F 100% 30.41 in 6.0 mi Calm Calm - N/A   Clear
8:58 AM 36.9 °F - 36.5 °F 99% 30.43 in 10.0 mi SSE 2.3 mph - 0.00 in   Clear
9:58 AM 42.3 °F 39.4 °F 41.9 °F 99% 30.44 in 10.0 mi Variable 4.6 mph - N/A   Clear
10:58 AM 47.1 °F - 39.7 °F 76% 30.46 in 10.0 mi WNW 6.9 mph - N/A   Clear
11:58 AM 49.6 °F - 40.3 °F 70% 30.47 in 10.0 mi Variable 3.5 mph - N/A   Clear
12:58 PM 51.8 °F - 38.5 °F 60% 30.46 in 10.0 mi South 4.6 mph - N/A   Clear
1:58 PM 54.9 °F - 38.1 °F 53% 30.45 in 10.0 mi Variable 2.3 mph - N/A   Clear
2:58 PM 56.3 °F - 38.1 °F 51% 30.45 in 10.0 mi NNW 3.5 mph - N/A   Clear
3:58 PM 56.7 °F - 36.3 °F 47% 30.45 in 10.0 mi WNW 2.3 mph - N/A   Clear
4:58 PM 55.0 °F - 37.4 °F 51% 30.45 in 10.0 mi NW 4.6 mph - N/A   Clear
5:58 PM 52.0 °F - 37.4 °F 58% 30.47 in 10.0 mi NNW 2.3 mph - N/A   Clear
6:58 PM 49.5 °F - 35.6 °F 59% 30.49 in 10.0 mi Calm Calm - N/A   Clear
7:58 PM 46.9 °F - 35.6 °F 65% 30.50 in 10.0 mi Variable 3.5 mph - N/A   Clear
8:58 PM 40.1 °F - 35.1 °F 82% 30.51 in 10.0 mi SSE 2.3 mph - N/A   Clear
9:58 PM 36.9 °F - 34.3 °F 91% 30.52 in 10.0 mi South 2.3 mph - N/A   Clear
10:58 PM 35.1 °F - 34.7 °F 99% 30.52 in 10.0 mi Variable 1.2 mph - N/A   Clear
11:58 PM 32.9 °F 29.8 °F 32.7 °F 99% 30.52 in 10.0 mi South 3.5 mph - N/A   Clear